[[{"header":{"parameterUnit":"m.s-1","parameterCategory":1,"la1":30.2991,"la2":30.254,"lo1":-89.0895,"lo2":-89.0444,"dy":0.0017,"dx":0.0017,"nx":28,"ny":28,"refTime":"2024-04-05T21:00:00:Z","depth":0,"parameterNumber":2,"parameterNumberName":"U-component_of_WINDS"},"data":[0,0,0,0,0,0,0,0,0,0,0,0,0,0,0,0,0,0,0,0,0,0,0,0,0,0,0,0,0,0,0,0,0,0,0,0,0,0,0,0,0,0,0,0,0,0,0,0,0,0,0,0,0,0,0,0,0,0,-5.8854,-5.8854,0,-5.8864,-5.8865,-5.8865,-5.8727,-5.8723,-5.872,-5.8716,-5.8727,-5.8731,-5.8735,0,0,0,0,0,0,0,0,0,0,0,0,0,-5.8717,-5.872,-5.8854,-5.8854,-5.8854,-5.8864,-5.8865,-5.8865,-5.8728,-5.8723,-5.8719,-5.8714,-5.8726,-5.8731,-5.8735,0,0,0,0,0,0,0,0,0,0,0,0,0,-5.8757,-5.8722,-5.8854,-5.8787,-5.8781,-5.8864,-5.8865,-5.8865,-5.8729,-5.8723,-5.8718,-5.8712,-5.8725,-5.873,-5.8736,-5.8883,0,0,-5.8753,-5.8756,0,0,0,0,0,0,0,0,-5.8755,-5.8762,-5.8797,-5.8792,-5.8786,-5.8789,-5.882,-5.8871,-5.873,-5.8749,-5.8716,-5.871,-5.8752,-5.8755,-5.877,-5.8884,-5.8884,-5.8754,-5.8757,-5.8759,-5.8761,0,0,0,0,0,0,0,-5.8752,-5.8761,-5.8858,-5.8798,-5.8791,-5.8757,-5.8757,-5.8829,-5.8782,-5.8747,-5.8737,-5.874,-5.8748,-5.8765,-5.8769,-5.8884,-5.8753,-5.8758,-5.8762,-5.8764,-5.9121,-5.9127,0,0,0,0,0,0,-5.8759,-5.876,-5.8858,-5.8858,-5.8756,-5.8764,-5.8764,-5.8794,-5.8781,-5.8773,-5.8745,-5.8733,-5.8758,-5.8762,-5.8769,-5.8941,-5.8759,-5.8765,-5.8768,-5.9115,-5.9123,-5.9129,0,0,0,0,0,0,-5.8756,-5.8769,-5.8857,-5.8806,-5.8815,-5.8773,-5.8807,-5.8797,-5.8813,-5.8779,-5.877,-5.877,-5.8753,-5.8761,-5.8856,-5.894,-5.8767,-5.8772,-5.9108,-5.9118,-5.9126,-5.9287,0,0,0,0,0,0,-5.8753,-5.8769,-5.8824,-5.8809,-5.8818,-5.8945,-5.8812,-5.8801,-5.8823,-5.8808,-5.8801,-5.8794,-5.8749,-5.8848,-5.8862,-5.8944,-5.8777,-5.91,-5.9112,-5.9123,-5.9274,-5.9301,-5.9323,0,0,0,0,0,-5.8749,-5.8869,-5.8827,-5.884,-5.8887,-5.895,-5.8955,-5.8901,-5.883,-5.8886,-5.8864,-5.8794,-5.8929,-5.8859,-5.8873,-5.8959,-5.9095,-5.9109,-5.9122,-5.9263,-5.9295,-5.9323,0,0,0,0,0,0,-5.8894,-5.8865,-5.8819,-5.8938,-5.8948,-5.8926,-5.8994,-5.8937,-5.8967,-5.8952,-5.8884,-5.8884,-5.899,-5.8984,-5.8907,-5.9102,-5.8999,-5.9016,-5.9102,-5.9132,-5.9156,-5.9155,-5.8782,0,0,0,0,0,-5.8941,-5.8994,-5.8966,-5.9073,-5.908,-5.9037,-5.9063,-5.9021,-5.9028,-5.9031,-5.9016,-5.9026,-5.907,-5.9101,-5.914,-5.9273,-5.927,-5.9339,-5.9363,-5.9384,-5.9399,-5.947,-5.9501,-5.9174,-5.9174,-5.9174,0,0,-5.9036,-5.9027,-5.9065,-5.9103,-5.9105,-5.9162,-5.9041,-5.9107,-5.9149,-5.9041,-5.9129,-5.912,-5.9126,-5.9242,-5.9292,-5.924,-5.9489,-5.9401,-5.9418,-5.9422,-5.9487,-5.9518,-5.9546,-5.9183,-5.9182,-5.918,0,0,-5.9239,-5.9238,-5.9327,-5.9333,-5.9338,-5.9308,-5.9331,-5.9319,-5.9308,-5.9396,-5.9317,-5.9366,-5.9444,-5.9452,-5.9466,-5.9675,-5.9612,-5.969,-5.9818,-5.9888,-5.9914,-5.9936,-6.0011,-6.0039,-5.9706,-5.9706,-5.9706,0,-5.9357,-5.944,-5.9381,-5.9452,-5.9471,-5.9377,-5.9468,-5.9476,-5.9494,-5.951,-5.9451,-5.9547,-5.9545,-5.9661,-5.9713,-5.9727,-5.9751,-5.969,-5.9915,-5.9937,-5.9957,-6.0027,-6.0056,-5.9715,-5.9714,-5.9713,-5.9712,0,-5.9585,-5.9644,-5.9716,-5.9736,-5.9764,-5.9844,-5.9798,-5.9833,-5.979,-5.9767,-5.9859,-5.9854,-5.989,-5.9915,-5.9872,-6.0026,-5.9993,-5.9926,-5.9822,-5.9998,-6.0064,-6.009,-5.9729,-5.9725,-5.9723,-5.972,0,0,-5.9878,-5.9866,-5.9894,-5.9902,-5.9902,-5.9946,-6.0024,-6.006,-6.0092,-6.0108,-6.0171,-6.024,-6.0178,-6.0195,-6.0153,-6.0215,-6.0381,-6.014,-6.0139,-6.0185,-6.0551,-6.0601,-6.0633,-6.034,-6.0345,-6.0349,-6.055,0,-6.0076,-6.0207,-6.0157,-6.0291,-6.0345,-6.0258,-6.0325,-6.0333,-6.0314,-6.0358,-6.0337,-6.0387,-6.0302,-6.0311,-6.0369,-6.0349,-6.0454,-6.0334,-6.0399,-6.0402,-6.0399,-6.0667,-6.072,-6.091,-6.0575,-6.058,-6.0583,0,-6.0323,-6.035,-6.0491,-6.0482,-6.0503,-6.0565,-6.0594,-6.0637,-6.0645,-6.0627,-6.0647,-6.0592,-6.0668,-6.0565,-6.0669,-6.0589,-6.0613,-6.0607,-6.0613,-6.0617,-6.0502,-6.0678,-6.097,-6.0998,-6.0622,-6.0619,-6.0616,0,-6.0524,-6.0595,-6.0688,-6.0698,-6.0691,-6.0736,-6.0736,-6.0737,-6.0763,-6.0789,-6.0805,-6.084,-6.086,-6.0888,-6.0845,-6.0774,-6.0956,-6.0849,-6.0944,-6.0945,-6.0985,-6.0983,-6.1285,-6.1002,-6.1001,-6.1001,-6.1,0,-6.0749,-6.0839,-6.0778,-6.0836,-6.0934,-6.0876,-6.0975,-6.0964,-6.0967,-6.1022,-6.0948,-6.1001,-6.094,-6.0988,-6.0955,-6.1046,-6.1056,-6.1044,-6.1034,-6.105,-6.1052,-6.1064,-6.105,-6.1008,-6.1006,-6.1005,-6.1004,0,-6.0989,-6.0952,-6.1048,-6.1034,-6.1032,-6.1105,-6.1093,-6.1146,-6.1123,-6.1193,-6.1206,-6.117,-6.1222,-6.1182,-6.1234,-6.1211,-6.1332,-6.1304,-6.133,-6.1322,-6.1419,-6.141,-6.1738,-6.1779,-6.1471,-6.1474,-6.1476,0,-6.1135,-6.1201,-6.1195,-6.1226,-6.123,-6.1281,-6.1307,-6.1254,-6.1284,-6.1298,-6.135,-6.1396,-6.1429,-6.1517,-6.1496,-6.1535,-6.1507,-6.162,-6.1512,-6.1527,-6.1509,-6.1505,-6.1512,-6.1641,-6.1645,-6.1648,-6.165,0,-6.1398,-6.1377,-6.1416,-6.1451,-6.1484,-6.1509,-6.1527,-6.1557,-6.1503,-6.1541,-6.1593,-6.162,-6.1673,-6.1719,-6.1752,-6.1751,-6.1693,-6.1684,-6.1708,-6.1725,-6.1737,-6.1732,-6.1389,-6.1676,-6.1674,-6.1672,-6.167,-6.1669,-6.1594,-6.165,-6.1655,-6.1702,-6.1711,-6.173,-6.178,-6.1763,-6.1806,-6.1845,-6.1811,-6.1875,-6.1882,-6.1919,-6.1926,-6.1976,-6.1929,-6.1964,-6.1972,-6.1982,-6.1996,-6.1731,-6.1981,-6.198,-6.198,-6.1979,-6.1978,0,-6.1853,-6.1852,-6.1897,-6.1925,-6.1963,-6.1905,-6.1924,-6.1959,-6.2016,-6.2028,-6.2063,-6.2124,-6.217,-6.2153,-6.2194,-6.2236,-6.2211,-6.2249,-6.2245,-6.2246,-6.2035,-6.201,-6.2269,-6.2269,-6.2269,-6.2269,-6.2269,-6.2269,-6.1992,-6.2084,-6.2064,-6.2159,-6.2157,-6.2219,-6.2235,-6.2253,-6.2262,-6.2334,-6.2371,-6.236,-6.2361,-6.2402,-6.2441,-6.2435,-6.2454,-6.2502,-6.2486,-6.2289,-6.2261,-6.2233,-6.2209,-6.2506,-6.2507,-6.2693,-6.2695,-6.2696]},{"header":{"parameterUnit":"m.s-1","parameterCategory":1,"la1":30.2991,"la2":30.254,"lo1":-89.0895,"lo2":-89.0444,"dy":0.0017,"dx":0.0017,"nx":28,"ny":28,"refTime":"2024-04-05T21:00:00:Z","depth":0,"parameterNumber":3,"parameterNumberName":"V-component_of_WINDS"},"data":[0,0,0,0,0,0,0,0,0,0,0,0,0,0,0,0,0,0,0,0,0,0,0,0,0,0,0,0,0,0,0,0,0,0,0,0,0,0,0,0,0,0,0,0,0,0,0,0,0,0,0,0,0,0,0,0,0,0,-0.2801,-0.2801,0,-0.2838,-0.2838,-0.2838,-0.284,-0.284,-0.284,-0.2839,-0.2879,-0.2881,-0.2882,0,0,0,0,0,0,0,0,0,0,0,0,0,-0.2732,-0.2733,-0.2801,-0.2801,-0.2801,-0.2837,-0.2838,-0.2839,-0.2841,-0.284,-0.2839,-0.2839,-0.2879,-0.288,-0.2882,0,0,0,0,0,0,0,0,0,0,0,0,0,-0.2765,-0.2734,-0.28,-0.2807,-0.2808,-0.2837,-0.2838,-0.2839,-0.2841,-0.284,-0.2839,-0.2839,-0.2878,-0.288,-0.2882,-0.2909,0,0,-0.2889,-0.289,0,0,0,0,0,0,0,0,-0.2763,-0.2767,-0.2805,-0.2806,-0.2807,-0.2834,-0.2828,-0.2862,-0.2841,-0.2828,-0.2839,-0.2838,-0.2865,-0.2868,-0.2876,-0.2911,-0.2912,-0.2889,-0.2891,-0.2892,-0.2892,0,0,0,0,0,0,0,-0.2761,-0.2766,-0.2815,-0.2806,-0.2807,-0.2808,-0.2812,-0.2835,-0.285,-0.2829,-0.2829,-0.2834,-0.2865,-0.2874,-0.2877,-0.2913,-0.2889,-0.2891,-0.2893,-0.2893,-0.297,-0.297,0,0,0,0,0,0,-0.2757,-0.2764,-0.2814,-0.2816,-0.2783,-0.281,-0.2814,-0.2826,-0.2849,-0.2852,-0.2834,-0.2834,-0.2871,-0.2875,-0.2879,-0.2911,-0.2892,-0.2894,-0.2895,-0.2969,-0.297,-0.2971,0,0,0,0,0,0,-0.2755,-0.2761,-0.2813,-0.279,-0.2797,-0.2811,-0.2825,-0.2827,-0.2836,-0.2853,-0.2856,-0.2841,-0.287,-0.2876,-0.2901,-0.2912,-0.2895,-0.2897,-0.2968,-0.2969,-0.297,-0.2975,0,0,0,0,0,0,-0.2753,-0.2761,-0.2771,-0.279,-0.2798,-0.2834,-0.2826,-0.2828,-0.284,-0.2839,-0.286,-0.2863,-0.287,-0.2898,-0.2903,-0.2915,-0.2898,-0.2967,-0.2969,-0.297,-0.2974,-0.2976,-0.2978,0,0,0,0,0,-0.2751,-0.2772,-0.2772,-0.2778,-0.2811,-0.2835,-0.2839,-0.2847,-0.2841,-0.2851,-0.2862,-0.2862,-0.291,-0.29,-0.2906,-0.2919,-0.2967,-0.2968,-0.297,-0.2973,-0.2976,-0.2978,0,0,0,0,0,0,-0.2755,-0.2774,-0.2775,-0.2802,-0.2816,-0.2835,-0.2849,-0.2849,-0.2867,-0.2866,-0.2875,-0.2879,-0.2904,-0.2914,-0.2903,-0.2945,-0.2937,-0.294,-0.2938,-0.294,-0.2942,-0.294,-0.29,0,0,0,0,0,-0.2758,-0.2776,-0.2792,-0.2815,-0.2822,-0.2834,-0.2845,-0.2849,-0.2865,-0.2871,-0.2884,-0.2899,-0.2917,-0.2929,-0.2947,-0.2975,-0.2979,-0.2986,-0.2988,-0.299,-0.2993,-0.3007,-0.301,-0.2976,-0.2976,-0.2976,0,0,-0.2767,-0.278,-0.2791,-0.2816,-0.2828,-0.2845,-0.2839,-0.2859,-0.2872,-0.2874,-0.2898,-0.2908,-0.2926,-0.2952,-0.2964,-0.2961,-0.3003,-0.2992,-0.2993,-0.2995,-0.3009,-0.3012,-0.3015,-0.2977,-0.2977,-0.2977,0,0,-0.2792,-0.2803,-0.2823,-0.2834,-0.2851,-0.2859,-0.2863,-0.2881,-0.2887,-0.2912,-0.2913,-0.2929,-0.2961,-0.2973,-0.2984,-0.301,-0.3011,-0.3016,-0.3027,-0.3041,-0.3043,-0.3046,-0.3055,-0.3058,-0.3018,-0.3018,-0.3018,0,-0.28,-0.2827,-0.2833,-0.2852,-0.2863,-0.2864,-0.2884,-0.2895,-0.2917,-0.2925,-0.292,-0.2959,-0.2971,-0.3,-0.3006,-0.3015,-0.302,-0.3014,-0.3042,-0.3045,-0.3047,-0.3056,-0.306,-0.3019,-0.3019,-0.3019,-0.3019,0,-0.2836,-0.2854,-0.2868,-0.2888,-0.2901,-0.292,-0.2929,-0.2941,-0.2943,-0.2951,-0.2975,-0.299,-0.301,-0.3017,-0.302,-0.3046,-0.3043,-0.304,-0.3033,-0.3051,-0.3059,-0.3063,-0.3019,-0.3019,-0.3019,-0.3019,0,0,-0.2866,-0.2888,-0.2893,-0.2901,-0.2919,-0.2934,-0.2953,-0.2971,-0.2981,-0.2996,-0.3012,-0.3038,-0.3035,-0.3046,-0.3051,-0.3063,-0.3083,-0.3059,-0.306,-0.3063,-0.3111,-0.3113,-0.3117,-0.3083,-0.3084,-0.3084,-0.3109,0,-0.2892,-0.2925,-0.293,-0.2959,-0.2976,-0.2976,-0.2993,-0.3006,-0.3013,-0.3028,-0.3036,-0.3054,-0.3049,-0.3056,-0.3068,-0.3078,-0.3092,-0.3076,-0.3098,-0.3099,-0.3094,-0.3121,-0.3124,-0.3147,-0.3113,-0.3113,-0.3114,0,-0.2928,-0.2942,-0.2972,-0.2987,-0.2994,-0.3009,-0.3025,-0.304,-0.3054,-0.3059,-0.3071,-0.3073,-0.3093,-0.3084,-0.311,-0.3099,-0.3108,-0.3114,-0.3115,-0.3118,-0.3108,-0.3125,-0.3154,-0.3158,-0.3119,-0.3119,-0.3118,0,-0.2945,-0.2973,-0.2994,-0.3001,-0.3019,-0.3029,-0.3037,-0.3051,-0.3061,-0.3076,-0.3083,-0.31,-0.3109,-0.3122,-0.3129,-0.3122,-0.3155,-0.3147,-0.316,-0.3159,-0.3167,-0.3167,-0.3199,-0.3173,-0.3173,-0.3173,-0.3173,0,-0.2974,-0.2993,-0.3002,-0.3015,-0.3036,-0.3041,-0.3061,-0.3069,-0.3081,-0.3095,-0.3097,-0.3111,-0.3119,-0.3134,-0.314,-0.3161,-0.3165,-0.3169,-0.3171,-0.3169,-0.3169,-0.3176,-0.3174,-0.3174,-0.3173,-0.3173,-0.3173,0,-0.2998,-0.3005,-0.3028,-0.3043,-0.3046,-0.3061,-0.3073,-0.3086,-0.3092,-0.3111,-0.3115,-0.3126,-0.3143,-0.3151,-0.3173,-0.3177,-0.3201,-0.3201,-0.3196,-0.3196,-0.3208,-0.3207,-0.3246,-0.3251,-0.3222,-0.3222,-0.3222,0,-0.3017,-0.3031,-0.3046,-0.3055,-0.3063,-0.3078,-0.3088,-0.3094,-0.3105,-0.3121,-0.3131,-0.3149,-0.3163,-0.3191,-0.3201,-0.3217,-0.3218,-0.323,-0.322,-0.3218,-0.3218,-0.3217,-0.3218,-0.3232,-0.3233,-0.3233,-0.3233,0,-0.3048,-0.305,-0.3064,-0.3079,-0.3091,-0.3104,-0.3116,-0.3123,-0.3131,-0.3143,-0.316,-0.3171,-0.3192,-0.3209,-0.3226,-0.3234,-0.3235,-0.3236,-0.3239,-0.3238,-0.3235,-0.3237,-0.32,-0.3235,-0.3235,-0.3235,-0.3235,-0.3235,-0.307,-0.3081,-0.3093,-0.3109,-0.3118,-0.3129,-0.3141,-0.3148,-0.3163,-0.318,-0.3182,-0.3201,-0.3214,-0.3236,-0.3245,-0.3259,-0.3256,-0.3262,-0.3263,-0.3265,-0.3265,-0.3232,-0.3262,-0.3262,-0.3262,-0.3262,-0.3262,0,-0.3101,-0.3108,-0.3122,-0.3138,-0.315,-0.3148,-0.3161,-0.3171,-0.3187,-0.3199,-0.3212,-0.3231,-0.3247,-0.3258,-0.3274,-0.3283,-0.3284,-0.3287,-0.3287,-0.3289,-0.3267,-0.3262,-0.3287,-0.3287,-0.3287,-0.3287,-0.3286,-0.3286,-0.3118,-0.3138,-0.3141,-0.3166,-0.3173,-0.319,-0.3197,-0.3207,-0.3216,-0.3237,-0.325,-0.3257,-0.3267,-0.3284,-0.3299,-0.3301,-0.3307,-0.3311,-0.3313,-0.3293,-0.329,-0.3288,-0.3283,-0.3312,-0.3312,-0.3334,-0.3334,-0.3334]}]]